Simultaneous Nadir Overpasses (SNOs) Predictions

Prediction of SNOs between LANDSAT-8 and NPP Satellite Orbit:

Table of predicted SNOs for the next 14.0 days since TLE Epoch: 8/24/2024
Index Date (LANDSAT-8) Time (LANDSAT-8) Lat,Lon (LANDSAT-8) SZA (LANDSAT-8 ) Date (NPP) Time (NPP) Lat,Lon (NPP) SZA (NPP ) Distance(km) Time Diff (sec)
1 08/26/2024 13:51:59 -70.93, 149.59 119.26 08/26/2024 13:50:52 -71.00, 147.17 119.12 88.14 67
2 08/26/2024 14:41:40 70.06, -44.06 59.91 08/26/2024 14:41:20 70.05, -44.00 59.90 2.56 20
3 08/26/2024 15:31:10 -69.95, 123.42 120.19 08/26/2024 15:32:02 -69.96, 123.45 120.18 1.51 52
4 08/29/2024 06:08:41 -70.15, -95.68 119.08 08/29/2024 06:07:30 -70.18, -95.73 119.04 3.25 71
5 08/29/2024 06:58:08 70.04, 71.80 60.83 08/29/2024 06:58:13 70.02, 71.82 60.81 2.83 5
6 08/29/2024 07:47:40 -69.82,-120.87 119.37 08/29/2024 07:48:53 -69.82,-120.56 119.39 11.99 73
7 08/31/2024 22:25:09 -70.08, 20.11 118.18 08/31/2024 22:24:22 -70.10, 20.16 118.16 2.76 47
8 08/31/2024 23:14:35 70.02,-172.33 61.78 08/31/2024 23:15:06 70.00,-172.37 61.75 3.16 31
9 09/03/2024 13:51:53 70.78, -30.60 63.46 09/03/2024 13:50:44 70.83, -32.54 63.56 71.01 69
10 09/03/2024 14:41:34 -70.07, 135.99 117.22 09/03/2024 14:41:14 -70.09, 135.95 117.19 2.69 20
11 09/03/2024 15:31:01 69.95, -56.53 62.68 09/03/2024 15:31:57 69.94, -56.51 62.67 1.36 56
12 09/06/2024 06:08:29 70.16, 84.39 63.85 09/06/2024 06:07:24 70.16, 84.32 63.85 2.90 65
13 09/06/2024 06:58:00 -70.01,-108.19 116.29 09/06/2024 06:58:05 -69.99,-108.12 116.31 3.38 5
14 09/06/2024 07:47:33 69.55, 58.82 63.28 09/06/2024 07:48:43 69.58, 59.80 63.29 38.12 70



Historial Predications of SNOs between LANDSAT-8 and NPP
